STARLINK-1606, 46144

Orbit data source: Space-Track

STARLINK-1606, 46144 is a payload satellite owned by SpaceX/Seattle (US) in LEO that was launched on Tue, 18 Aug 2020 UTC via an FALCON 9 launch vehicle from the Air Force Eastern Test Range (AFETR). Payload-class satellites include a variety of spacecraft equipped with specific instruments for various scientific and technological missions. These include communications satellites like Starlink; space stations such as the ISS; scientific satellites like the Hubble; Earth observation satellites from companies like Planet Labs, Umbra, and HawkEye 360; GPS; miniature CubeSats for education and research; and military/defense satellites.

Loading next visibility...
Identifier
46144, 2020-057AD
Orbit
LEO
Country
Flag of USUS
Related business
Manufacturer
SpaceX/Seattle
Mission
Operational Commercial Communications
Bus & Motor
STARLINK, Unknown motor
Mass
260 kg wet, ~248 kg dry
Launch date (UTC)
2020-08-18 (5 years ago)
Launch vehicle
FALCON 9
Launch site
Air Force Eastern Test Range (AFETR)
Object type
Payload
Rocket body
Debris
Shape & HBR
Box + 1 Pan, 4.4 m
Radar Cross Section
13.562 m², Large (>1 m²)

Expand to show TLE details & history
Last TLE update: 20 hours ago

TLE from 20 hours ago
0 STARLINK-1606
1 46144U 20057AD  25241.27037174 -.00000664  00000-0 -25685-4 0  9996
2 46144  53.0556  80.4248 0001194  90.6959 269.4166 15.06383518265595
Epoch: 2025-08-29T06:29Z
TLE epoch observation values (Epoch: 2025-08-29T06:29:20.118Z)
Latitude
-0.00008°
Longitude
5.36949°
Altitude
548.15 km
Speed
7.589 km/s
True Right ascension
05h 21m 41s
True Declination
0° 00' 00"
Sunlit
Object was in daylight at epoch
Visualization orbit readout
Latitude
Unknown
Longitude
Unknown
Altitude
Unknown
Speed
Unknown
Apparent Right ascension
Unknown
Apparent Declination
Unknown
Sunlit
N/A
Visualization observer readout
Local Sidereal Time
18:20:05
Azimuth
Unknown
Elevation
Unknown
Doppler factor
Unknown
Orbital elements
Apogee altitude
548.36 km
Perigee altitude
546.706 km
Semi-major axis
6,925.67 km
Eccentricity
0.00012
Inclination
53.0556°
RAAN
80.4248°
Arg. of periapsis
90.6959°
True anomaly
269.40292°
Mean anomaly
269.4166°
Eccentric anomaly
269.40976°
Mean motion
3.76574 °/min
Orbital period
95.6 mins
BSTAR
-0.000025685
Loading maneuver chart data...
Computing Atmospheric mass density...
Loading historical data...
Loading historical data...
Loading historical data...
Loading historical data...
Loading historical data...
Loading historical data...
Loading historical data...

Documentation

Showing up to 5 results
|